| time (UTC) | temp F | wind direction | speed MPH | gust MPH | rain 1hr in | rain 24hr in | rain mn in | humidity % | barometer mb |
| 20260831050048 | 52 | 216 | 3.0 | 7.0 | 0.00 | 0.00 | 0.00 | 70 | 1012.5 |
| 20260831044636 | 52 | 189 | 4.0 | 9.0 | 0.00 | 0.02 | 0.00 | 69 | 1012.5 |
| 20260831043044 | 53 | 208 | 7.0 | 15.0 | 0.00 | 0.02 | 0.00 | 68 | 1012.5 |
| 20260831041550 | 54 | 220 | 13.0 | 24.0 | 0.00 | 0.02 | 0.00 | 66 | 1012.2 |
| 20260831040046 | 54 | 239 | 12.0 | 24.0 | 0.00 | 0.02 | 0.00 | 66 | 1012.0 |
| 20260831034544 | 54 | 256 | 15.0 | 21.0 | 0.00 | 0.02 | 0.00 | 65 | 1012.2 |
| 20260831033106 | 54 | 277 | 11.0 | 17.0 | 0.00 | 0.02 | 0.00 | 67 | 1012.5 |
| 20260831031545 | 55 | 252 | 6.0 | 11.0 | 0.00 | 0.02 | 0.00 | 67 | 1012.2 |
| 20260831030045 | 55 | 243 | 9.0 | 16.0 | 0.00 | 0.02 | 0.00 | 66 | 1012.0 |
| 20260831024545 | 55 | 262 | 11.0 | 17.0 | 0.00 | 0.02 | 0.00 | 66 | 1011.8 |
| 20260831023051 | 56 | 265 | 3.0 | 8.0 | 0.00 | 0.02 | 0.00 | 64 | 1011.9 |
| 20260831021545 | 56 | 287 | 8.0 | 12.0 | 0.00 | 0.02 | 0.00 | 62 | 1011.8 |
| 20260831020046 | 57 | 293 | 9.0 | 21.0 | 0.00 | 0.02 | 0.00 | 60 | 1011.5 |
| 20260831014546 | 58 | 287 | 13.0 | 25.0 | 0.00 | 0.02 | 0.00 | 58 | 1011.5 |
| 20260831013049 | 57 | 252 | 7.0 | 11.0 | 0.00 | 0.02 | 0.00 | 61 | 1011.2 |
| 20260831011554 | 56 | 260 | 6.0 | 11.0 | 0.00 | 0.02 | 0.00 | 65 | 1011.4 |
| 20260831010059 | 56 | 264 | 9.0 | 23.0 | 0.00 | 0.02 | 0.00 | 65 | 1011.5 |
| 20260831004544 | 58 | 294 | 14.0 | 19.0 | 0.00 | 0.04 | 0.00 | 61 | 1012.0 |
| 20260831003048 | 58 | 270 | 14.0 | 22.0 | 0.00 | 0.04 | 0.00 | 58 | 1011.5 |
| 20260831001546 | 57 | 289 | 16.0 | 27.0 | 0.00 | 0.04 | 0.00 | 59 | 1011.6 |
| 20260831000048 | 58 | 278 | 16.0 | 27.0 | 0.00 | 0.04 | 0.00 | 59 | 1011.7 |
| 20260830234544 | 59 | 272 | 23.0 | 37.0 | 0.00 | 0.09 | 0.00 | 49 | 1011.6 |
| 20260830233045 | 62 | 268 | 25.0 | 35.0 | 0.00 | 0.09 | 0.00 | 44 | 1011.2 |
| 20260830231546 | 63 | 229 | 21.0 | 32.0 | 0.00 | 0.09 | 0.00 | 42 | 1011.1 |
| 20260830230044 | 64 | 225 | 17.0 | 34.0 | 0.00 | 0.09 | 0.00 | 40 | 1011.1 |
| 20260830224550 | 62 | 272 | 17.0 | 30.0 | 0.00 | 0.10 | 0.00 | 41 | 1010.9 |
| 20260830223045 | 63 | 254 | 19.0 | 30.0 | 0.00 | 0.10 | 0.00 | 40 | 1011.0 |
| 20260830221543 | 63 | 246 | 18.0 | 35.0 | 0.00 | 0.10 | 0.00 | 40 | 1011.3 |
| 20260830220045 | 63 | 225 | 23.0 | 37.0 | 0.00 | 0.10 | 0.00 | 39 | 1011.3 |
| 20260830214547 | 62 | 266 | 20.0 | 35.0 | 0.00 | 0.10 | 0.00 | 41 | 1011.3 |
| 20260830213053 | 62 | 259 | 18.0 | 31.0 | 0.00 | 0.10 | 0.00 | 42 | 1011.6 |
| 20260830211545 | 62 | 237 | 19.0 | 38.0 | 0.00 | 0.10 | 0.00 | 42 | 1011.7 |
| 20260830210046 | 63 | 238 | 20.0 | 32.0 | 0.00 | 0.10 | 0.00 | 41 | 1011.7 |
| 20260830204544 | 63 | 217 | 21.0 | 34.0 | 0.00 | 0.10 | 0.00 | 40 | 1011.6 |
| 20260830203051 | 62 | 225 | 21.0 | 33.0 | 0.00 | 0.10 | 0.00 | 42 | 1011.6 |
| 20260830201546 | 62 | 220 | 16.0 | 30.0 | 0.00 | 0.10 | 0.00 | 44 | 1011.6 |
| 20260830200045 | 62 | 233 | 19.0 | 30.0 | 0.00 | 0.10 | 0.00 | 44 | 1011.7 |
| 20260830194545 | 61 | 261 | 22.0 | 31.0 | 0.00 | 0.10 | 0.00 | 44 | 1011.8 |
| 20260830193048 | 63 | 233 | 18.0 | 33.0 | 0.00 | 0.10 | 0.00 | 40 | 1011.4 |
| 20260830191546 | 63 | 256 | 19.0 | 32.0 | 0.00 | 0.10 | 0.00 | 40 | 1011.6 |
| 20260830190046 | 63 | 239 | 19.0 | 33.0 | 0.00 | 0.10 | 0.00 | 37 | 1011.4 |
| 20260830184550 | 63 | 238 | 21.0 | 38.0 | 0.00 | 0.10 | 0.00 | 40 | 1011.5 |
| 20260830183046 | 63 | 221 | 18.0 | 29.0 | 0.00 | 0.10 | 0.00 | 39 | 1011.4 |
| 20260830181547 | 63 | 216 | 20.0 | 28.0 | 0.00 | 0.10 | 0.00 | 39 | 1011.6 |
| 20260830180046 | 63 | 236 | 18.0 | 27.0 | 0.00 | 0.10 | 0.00 | 39 | 1011.9 |
| 20260830174545 | 62 | 250 | 15.0 | 28.0 | 0.00 | 0.10 | 0.00 | 41 | 1011.6 |
| 20260830173045 | 62 | 286 | 16.0 | 25.0 | 0.00 | 0.10 | 0.00 | 41 | 1011.8 |
| 20260830171546 | 62 | 255 | 17.0 | 28.0 | 0.00 | 0.10 | 0.00 | 41 | 1012.1 |
| 20260830170047 | 61 | 262 | 15.0 | 25.0 | 0.00 | 0.10 | 0.00 | 45 | 1012.1 |
| 20260830164540 | 61 | 234 | 16.0 | 23.0 | 0.00 | 0.10 | 0.00 | 44 | 1012.1 |
| 20260830163045 | 60 | 250 | 11.0 | 20.0 | 0.00 | 0.10 | 0.00 | 46 | 1011.9 |
| 20260830161559 | 59 | 212 | 14.0 | 21.0 | 0.00 | 0.10 | 0.00 | 45 | 1011.9 |
| 20260830160041 | 59 | 269 | 13.0 | 18.0 | 0.00 | 0.10 | 0.00 | 48 | 1012.0 |
| 20260830154546 | 58 | 254 | 12.0 | 19.0 | 0.00 | 0.10 | 0.00 | 49 | 1012.3 |
| 20260830153048 | 57 | 258 | 11.0 | 16.0 | 0.00 | 0.10 | 0.00 | 51 | 1012.5 |
| 20260830151547 | 54 | 40 | 0.0 | 4.0 | 0.00 | 0.10 | 0.00 | 59 | 1012.7 |
| 20260830150111 | 53 | 127 | 3.0 | 7.0 | 0.00 | 0.10 | 0.00 | 66 | 1012.6 |
| 20260830144540 | 51 | 274 | 0.0 | 7.0 | 0.00 | 0.10 | 0.00 | 66 | 1012.5 |
| 20260830143046 | 51 | 260 | 5.0 | 12.0 | 0.00 | 0.10 | 0.00 | 67 | 1012.5 |
| 20260830141545 | 51 | 269 | 8.0 | 14.0 | 0.00 | 0.10 | 0.00 | 68 | 1012.4 |
| 20260830140045 | 51 | 266 | 8.0 | 12.0 | 0.00 | 0.10 | 0.00 | 70 | 1012.6 |
| 20260830134544 | 51 | 270 | 6.0 | 9.0 | 0.00 | 0.10 | 0.00 | 72 | 1012.7 |
| 20260830133048 | 52 | 266 | 5.0 | 7.0 | 0.00 | 0.10 | 0.00 | 72 | 1012.7 |
| 20260830131545 | 52 | 272 | 3.0 | 7.0 | 0.00 | 0.10 | 0.00 | 70 | 1012.7 |
| 20260830130045 | 53 | 268 | 6.0 | 10.0 | 0.00 | 0.10 | 0.00 | 66 | 1012.5 |
| 20260830124544 | 54 | 253 | 6.0 | 10.0 | 0.00 | 0.10 | 0.00 | 66 | 1012.2 |
| 20260830123046 | 54 | 268 | 9.0 | 16.0 | 0.00 | 0.10 | 0.00 | 69 | 1012.1 |
| 20260830121552 | 54 | 268 | 8.0 | 15.0 | 0.00 | 0.10 | 0.00 | 75 | 1012.1 |
| 20260830120043 | 54 | 265 | 8.0 | 14.0 | 0.00 | 0.10 | 0.00 | 81 | 1011.9 |
| 20260830114553 | 55 | 263 | 10.0 | 15.0 | 0.00 | 0.10 | 0.00 | 79 | 1012.1 |
| 20260830113047 | 55 | 243 | 7.0 | 12.0 | 0.00 | 0.10 | 0.00 | 80 | 1012.1 |
| 20260830111546 | 55 | 237 | 12.0 | 18.0 | 0.00 | 0.10 | 0.00 | 81 | 1012.2 |
| 20260830110044 | 54 | 258 | 9.0 | 14.0 | 0.00 | 0.10 | 0.00 | 84 | 1012.1 |
| 20260830104542 | 54 | 258 | 8.0 | 12.0 | 0.00 | 0.10 | 0.00 | 86 | 1012.0 |
| 20260830103046 | 54 | 245 | 3.0 | 6.0 | 0.00 | 0.10 | 0.00 | 86 | 1011.9 |
| 20260830101549 | 54 | 260 | 5.0 | 7.0 | 0.00 | 0.10 | 0.00 | 86 | 1011.9 |
| 20260830100046 | 55 | 242 | 0.0 | 5.0 | 0.00 | 0.10 | 0.00 | 84 | 1011.8 |
| 20260830094546 | 55 | 234 | 0.0 | 7.0 | 0.00 | 0.10 | 0.00 | 83 | 1011.9 |
| 20260830093045 | 55 | 262 | 3.0 | 5.0 | 0.00 | 0.10 | 0.00 | 82 | 1011.8 |
| 20260830091545 | 55 | 254 | 0.0 | 5.0 | 0.00 | 0.10 | 0.00 | 82 | 1012.0 |
| 20260830090056 | 55 | 254 | 2.0 | 9.0 | 0.00 | 0.10 | 0.00 | 82 | 1012.4 |
| 20260830084548 | 55 | 230 | 8.0 | 14.0 | 0.00 | 0.10 | 0.00 | 82 | 1012.7 |
| 20260830083046 | 56 | 214 | 12.0 | 19.0 | 0.00 | 0.10 | 0.00 | 81 | 1012.7 |
| 20260830081545 | 56 | 214 | 10.0 | 18.0 | 0.00 | 0.10 | 0.00 | 85 | 1013.0 |
| 20260830080046 | 56 | 220 | 13.0 | 21.0 | 0.00 | 0.10 | 0.00 | 88 | 1012.9 |
| 20260830074554 | 55 | 194 | 13.0 | 20.0 | 0.00 | 0.10 | 0.00 | 89 | 1012.7 |
| 20260830073046 | 54 | 223 | 9.0 | 15.0 | 0.00 | 0.10 | 0.00 | 89 | 1012.1 |
| 20260830071545 | 54 | 217 | 5.0 | 9.0 | 0.00 | 0.10 | 0.00 | 90 | 1011.9 |
| 20260830070048 | 53 | 209 | 4.0 | 6.0 | 0.00 | 0.10 | 0.00 | 89 | 1011.9 |
| 20260830064545 | 53 | 241 | 2.0 | 8.0 | 0.00 | 0.10 | 0.00 | 89 | 1011.8 |
| 20260830063045 | 53 | 258 | 7.0 | 10.0 | 0.00 | 0.10 | 0.00 | 88 | 1011.8 |
| 20260830061544 | 54 | 293 | 6.0 | 9.0 | 0.00 | 0.10 | 0.00 | 86 | 1011.5 |
| 20260830060049 | 55 | 100 | 0.0 | 0.0 | 0.00 | 0.10 | 0.00 | 84 | 1011.5 |
| 20260830054545 | 54 | 100 | 1.0 | 3.0 | 0.00 | 0.10 | 0.10 | 85 | 1011.3 |
| 20260830053044 | 55 | 99 | 1.0 | 3.0 | 0.00 | 0.10 | 0.10 | 83 | 1011.3 |
| 20260830051547 | 56 | 100 | 2.0 | 5.0 | 0.02 | 0.10 | 0.10 | 82 | 1011.4 |